sat.trackr.live / text

‹ back to catalog

STARLINK-37795

NORAD 69311 · 2026-119R

PAYLOAD ACTIVE UNKNOWN

§ Identity

Operator
Country
US
Launch date
2026-05-30
Launch site
AFWTR
Launch vehicle
Mass (kg)
RCS (m²)

Purposes: comms

External: N2YO · Heavens-Above · Gunter

§ Orbital elements

Epoch: 2026-09-19T12:15:44.943840Z

Period
93.91 min
Inclination
97.2809°
Eccentricity
0.0000915
Mean motion
15.33450333 rev/d
Perigee alt
464.9 km
Apogee alt
466.2 km
Semi-major
6,843.7 km
B*
5.2258e-4
RAAN
287.2859°
Arg perigee
101.7418°
Mean anomaly
258.3927°
Rev number
1,851

§ Raw data

STARLINK-377951 69311U 26119R   26262.51093685  .00016836  00000+0  52258-3 0  99922 69311  97.2809 287.2859 0000915 101.7418 258.3927 15.33450333 18516

JSON: /api/v1/satellites/69311 · /tle

For live sub-satellite position, see the globe view (requires WebGL).

§ Visibility from observer

Set your observer location to see the next 7 days of passes ≥ 10°. The values pass through the URL so the page stays shareable.

No JS? Fill the form by hand. The geolocation button needs JavaScript.